DW0664 Weather Reports


Display with metric or nautical units.
time (UTC)temp
F
wind
direction
speed
MPH
gust
MPH
rain 1hr
in
rain 24hr
in
rain mn
in
humidity
%
barometer
mb
20260508002349 65 63 0.0 0.0 0.00 0.00 0.00 74 1016.7
20260508001845 65 53 0.0 1.0 0.00 0.00 0.00 73 1016.7
20260508001341 66 67 1.0 2.0 0.00 0.00 0.00 73 1016.9
20260508000838 66 61 0.0 1.0 0.00 0.00 0.00 73 1017.1
20260508000335 66 62 0.0 1.0 0.00 0.00 0.00 74 1017.0
20260507235831 66 62 0.0 1.0 0.00 0.00 0.00 73 1016.8
20260507235329 66 65 0.0 1.0 0.00 0.00 0.00 72 1016.9
20260507234825 66 59 0.0 2.0 0.00 0.00 0.00 72 1017.0
20260507234322 66 50 1.0 2.0 0.00 0.00 0.00 72 1017.2
20260507233818 66 60 0.0 1.0 0.00 0.00 0.00 71 1016.8
20260507233316 66 62 0.0 1.0 0.00 0.00 0.00 71 1016.9
20260507232814 66 48 0.0 1.0 0.00 0.00 0.00 71 1017.0
20260507232310 66 39 0.0 2.0 0.00 0.00 0.00 71 1016.9
20260507231807 67 77 0.0 1.0 0.00 0.00 0.00 71 1017.1
20260507231304 67 59 1.0 3.0 0.00 0.00 0.00 70 1016.8
20260507230800 67 50 0.0 3.0 0.00 0.00 0.00 70 1016.4
20260507230258 67 78 1.0 1.0 0.00 0.00 0.00 70 1016.7
20260507225757 67 62 0.0 1.0 0.00 0.00 0.00 70 1016.8
20260507225254 67 69 0.0 1.0 0.00 0.00 0.00 70 1017.0
20260507224750 67 22 1.0 2.0 0.00 0.00 0.00 69 1017.3
20260507224247 67 58 0.0 1.0 0.00 0.00 0.00 69 1017.3
20260507223743 68 54 1.0 4.0 0.00 0.00 0.00 69 1017.3
20260507223240 68 67 1.0 1.0 0.00 0.00 0.00 68 1017.3
20260507222737 67 46 0.0 2.0 0.00 0.00 0.00 68 1017.3
20260507222233 67 7 1.0 2.0 0.00 0.00 0.00 69 1017.4
20260507221730 68 66 1.0 2.0 0.00 0.00 0.00 68 1017.4
20260507221226 69 61 0.0 1.0 0.00 0.00 0.00 69 1017.3
20260507220723 69 53 0.0 1.0 0.00 0.00 0.00 69 1017.3
20260507220221 69 9 0.0 1.0 0.00 0.00 0.00 69 1016.9
20260507215717 68 63 0.0 2.0 0.00 0.00 0.00 69 1016.9
20260507215215 68 65 1.0 3.0 0.00 0.00 0.00 69 1016.7
20260507214712 68 39 1.0 2.0 0.00 0.00 0.00 69 1016.9
20260507214209 68 60 0.0 2.0 0.00 0.00 0.00 69 1017.4
20260507213704 68 55 0.0 1.0 0.00 0.00 0.00 69 1017.7
20260507213202 68 52 0.0 1.0 0.00 0.00 0.00 69 1017.6
20260507212657 68 66 0.0 1.0 0.00 0.00 0.00 70 1017.3
20260507212154 68 51 0.0 3.0 0.00 0.00 0.00 70 1016.9
20260507211651 67 45 0.0 2.0 0.00 0.00 0.00 71 1017.0
20260507211146 67 1 1.0 1.0 0.00 0.00 0.00 70 1017.0
20260507210644 66 76 1.0 3.0 0.00 0.00 0.00 69 1016.5
20260507210141 67 51 0.0 4.0 0.00 0.00 0.00 69 1016.3
20260507205637 67 63 0.0 1.0 0.00 0.00 0.00 69 1016.6
20260507205134 67 71 0.0 1.0 0.00 0.00 0.00 70 1016.9
20260507204630 67 77 1.0 3.0 0.00 0.00 0.00 68 1017.0
20260507204128 68 53 0.0 1.0 0.00 0.00 0.00 69 1017.3
20260507203626 68 43 1.0 2.0 0.00 0.00 0.00 68 1017.6
20260507203123 68 60 1.0 1.0 0.00 0.00 0.00 69 1017.6
20260507202619 68 95 0.0 3.0 0.00 0.00 0.00 68 1017.7
20260507202115 68 316 2.0 3.0 0.00 0.00 0.00 67 1017.6
20260507201610 69 24 1.0 4.0 0.00 0.00 0.00 66 1017.5
20260507201108 69 36 1.0 3.0 0.00 0.00 0.00 67 1017.7
20260507200603 69 27 2.0 3.0 0.00 0.00 0.00 67 1017.8
20260507200059 69 69 1.0 7.0 0.00 0.00 0.00 66 1018.1
20260507195557 69 30 2.0 3.0 0.00 0.00 0.00 67 1018.2
20260507195054 70 47 1.0 1.0 0.00 0.00 0.00 67 1018.2
20260507194550 70 53 2.0 2.0 0.00 0.00 0.00 65 1018.3
20260507194046 71 6 2.0 2.0 0.00 0.00 0.00 66 1018.2
20260507193543 70 64 0.0 2.0 0.00 0.00 0.00 67 1018.4
20260507193040 69 67 0.0 3.0 0.00 0.00 0.00 66 1018.4
20260507192536 70 72 1.0 4.0 0.00 0.00 0.00 66 1018.4
20260507192033 70 28 0.0 3.0 0.00 0.00 0.00 66 1018.5
20260507191528 69 328 1.0 4.0 0.00 0.00 0.00 65 1018.2
20260507191026 70 60 1.0 4.0 0.00 0.00 0.00 66 1017.8
20260507190523 70 70 0.0 1.0 0.00 0.00 0.00 65 1018.1
20260507190022 71 39 1.0 1.0 0.00 0.00 0.00 64 1018.0
20260507185520 71 95 2.0 2.0 0.00 0.00 0.00 63 1018.0
20260507185016 71 77 2.0 3.0 0.00 0.00 0.00 64 1018.4
20260507184514 71 59 0.0 1.0 0.00 0.00 0.00 65 1018.5
20260507184012 70 43 1.0 2.0 0.00 0.00 0.00 66 1018.7
20260507183507 71 103 2.0 2.0 0.00 0.00 0.00 64 1018.9
20260507183005 71 65 0.0 1.0 0.00 0.00 0.00 65 1018.4
20260507182501 71 61 0.0 2.0 0.00 0.00 0.00 65 1018.1
20260507181957 71 70 0.0 1.0 0.00 0.00 0.00 63 1018.4
20260507181454 71 58 1.0 1.0 0.00 0.00 0.00 64 1019.0
20260507180950 71 63 0.0 1.0 0.00 0.00 0.00 65 1019.2
20260507180447 71 61 0.0 1.0 0.00 0.00 0.00 65 1019.7
20260507175943 71 47 1.0 2.0 0.00 0.00 0.00 65 1019.4
20260507175440 70 57 2.0 3.0 0.00 0.00 0.00 64 1019.9
20260507174938 70 67 0.0 2.0 0.00 0.00 0.00 66 1019.7
20260507174434 71 43 1.0 3.0 0.00 0.00 0.00 66 1019.2
20260507173932 71 55 0.0 3.0 0.00 0.00 0.00 65 1019.1
20260507173429 70 57 0.0 2.0 0.00 0.00 0.00 66 1018.9
20260507172926 69 61 0.0 1.0 0.00 0.00 0.00 69 1019.0
20260507172422 67 51 0.0 2.0 0.00 0.00 0.00 70 1018.9
20260507171918 68 52 1.0 2.0 0.00 0.00 0.00 70 1019.1
20260507171415 67 63 2.0 2.0 0.00 0.00 0.00 69 1019.4
20260507170912 67 49 1.0 2.0 0.00 0.00 0.00 70 1019.3
20260507170409 66 26 3.0 3.0 0.00 0.00 0.00 71 1019.5
20260507165905 66 60 0.0 1.0 0.00 0.00 0.00 71 1019.8
20260507165401 67 61 0.0 1.0 0.00 0.00 0.00 71 1019.6
20260507164857 66 59 0.0 0.0 0.00 0.00 0.00 71 1019.4
20260507164354 66 54 0.0 1.0 0.00 0.00 0.00 71 1019.7
20260507163851 65 53 1.0 3.0 0.00 0.00 0.00 73 1019.8
20260507163348 65 53 1.0 3.0 0.00 0.00 0.00 73 1019.8
20260507162845 64 52 1.0 2.0 0.00 0.00 0.00 73 1019.7
20260507162340 64 24 1.0 2.0 0.00 0.00 0.00 73 1019.7
20260507161838 64 63 0.0 2.0 0.00 0.00 0.00 75 1019.7
20260507161334 64 38 1.0 2.0 0.00 0.00 0.00 74 1019.5
20260507160831 64 71 1.0 1.0 0.00 0.00 0.00 75 1019.3
20260507160326 63 57 0.0 2.0 0.00 0.00 0.00 75 1019.3
20260507155823 63 60 1.0 2.0 0.00 0.00 0.00 75 1019.5
20260507155319 64 36 1.0 3.0 0.00 0.00 0.00 74 1019.8
20260507154816 64 55 0.0 1.0 0.00 0.00 0.00 74 1019.4
20260507154313 64 58 0.0 1.0 0.00 0.00 0.00 75 1019.2
20260507153810 64 55 1.0 3.0 0.00 0.00 0.00 74 1019.2
20260507153306 64 59 1.0 1.0 0.00 0.00 0.00 74 1019.0
20260507152803 64 61 1.0 3.0 0.00 0.00 0.00 74 1018.7
20260507152259 64 49 1.0 2.0 0.00 0.00 0.00 75 1018.9
20260507151755 62 70 1.0 3.0 0.00 0.00 0.00 77 1019.1
20260507151251 61 20 0.0 2.0 0.00 0.00 0.00 79 1018.6
20260507150748 61 144 4.0 6.0 0.00 0.00 0.00 78 1018.4
20260507150245 62 6 1.0 3.0 0.00 0.00 0.00 78 1019.1
20260507145741 62 56 0.0 3.0 0.00 0.00 0.00 78 1019.3
20260507145238 61 44 2.0 3.0 0.00 0.00 0.00 79 1019.4
20260507144735 61 55 0.0 2.0 0.00 0.00 0.00 81 1019.5
20260507144233 60 66 1.0 2.0 0.00 0.00 0.00 82 1019.5
20260507143729 60 74 1.0 2.0 0.00 0.00 0.00 82 1019.2
20260507143226 60 11 0.0 1.0 0.00 0.00 0.00 83 1019.1
20260507142723 60 41 1.0 2.0 0.00 0.00 0.00 83 1019.3
20260507142219 59 54 0.0 1.0 0.00 0.00 0.00 84 1019.6
20260507141715 59 60 0.0 4.0 0.00 0.00 0.00 84 1019.5
20260507141213 59 59 0.0 3.0 0.00 0.00 0.00 84 1019.7
20260507140708 59 44 0.0 8.0 0.00 0.00 0.00 85 1019.4
20260507140206 59 39 0.0 1.0 0.00 0.00 0.00 85 1019.5
20260507135703 59 103 2.0 4.0 0.00 0.00 0.00 85 1019.7
20260507135200 60 58 1.0 1.0 0.00 0.00 0.00 85 1019.7
20260507134657 60 44 0.0 2.0 0.00 0.00 0.00 86 1019.6
20260507134153 60 63 1.0 4.0 0.00 0.00 0.00 86 1019.8
20260507133649 59 38 1.0 3.0 0.00 0.00 0.00 86 1019.6
20260507133146 59 40 2.0 6.0 0.00 0.00 0.00 86 1019.5
20260507132643 59 27 1.0 2.0 0.00 0.00 0.00 86 1019.5
20260507132139 59 64 0.0 2.0 0.00 0.00 0.00 87 1019.7
20260507131636 59 61 0.0 1.0 0.00 0.00 0.00 87 1019.5
20260507131134 59 85 1.0 2.0 0.00 0.00 0.00 88 1019.4
20260507130630 59 85 1.0 2.0 0.00 0.00 0.00 88 1019.4
20260507130129 59 53 1.0 2.0 0.00 0.00 0.00 88 1019.5
20260507125627 59 44 1.0 3.0 0.00 0.00 0.00 88 1019.1
20260507125124 59 53 2.0 3.0 0.00 0.00 0.00 88 1019.1
20260507124620 59 59 1.0 3.0 0.00 0.00 0.00 88 1019.2
20260507124118 59 42 0.0 2.0 0.00 0.00 0.00 88 1018.9
20260507123616 59 42 0.0 2.0 0.00 0.00 0.00 88 1018.9
20260507123113 59 45 1.0 2.0 0.00 0.00 0.00 88 1019.0
20260507122608 59 61 0.0 3.0 0.00 0.00 0.00 88 1019.0
20260507122104 59 46 0.0 2.0 0.00 0.00 0.00 88 1019.0
20260507121600 59 38 0.0 2.0 0.00 0.00 0.00 88 1018.8
20260507121056 59 50 2.0 2.0 0.00 0.00 0.00 87 1018.8
20260507120552 59 49 1.0 3.0 0.00 0.00 0.00 87 1018.9
20260507120049 59 78 0.0 1.0 0.00 0.00 0.00 87 1018.8
20260507115545 59 76 2.0 6.0 0.00 0.00 0.00 87 1018.8
20260507115041 59 56 0.0 1.0 0.00 0.00 0.00 88 1019.0
20260507114537 60 69 1.0 1.0 0.00 0.00 0.00 88 1018.5
20260507114035 60 104 1.0 2.0 0.00 0.00 0.00 88 1018.2
20260507113532 60 24 1.0 1.0 0.00 0.00 0.00 88 1017.9
20260507113029 60 47 0.0 2.0 0.00 0.00 0.00 88 1017.6
20260507112527 60 45 1.0 1.0 0.00 0.00 0.00 88 1017.6
20260507112023 60 63 0.0 2.0 0.00 0.00 0.00 89 1017.9
20260507111520 60 53 2.0 2.0 0.00 0.00 0.00 89 1018.2
20260507111017 60 66 1.0 2.0 0.00 0.00 0.00 89 1017.6
20260507110513 60 35 1.0 3.0 0.00 0.00 0.00 89 1017.5
20260507110010 61 62 1.0 2.0 0.00 0.00 0.00 89 1017.5
20260507105507 61 56 0.0 2.0 0.00 0.00 0.00 89 1017.9
20260507105003 61 52 1.0 3.0 0.00 0.00 0.00 89 1017.9
20260507104501 61 62 0.0 1.0 0.00 0.00 0.00 88 1017.6
20260507103956 61 31 0.0 1.0 0.00 0.00 0.00 89 1017.7
20260507103453 61 71 0.0 2.0 0.00 0.00 0.00 89 1017.6
20260507102949 61 25 1.0 2.0 0.00 0.00 0.00 89 1017.7
20260507102446 61 56 0.0 3.0 0.00 0.00 0.00 88 1017.2
20260507101942 61 59 0.0 1.0 0.00 0.00 0.00 88 1017.6
20260507101437 61 33 1.0 1.0 0.00 0.00 0.00 89 1017.9
20260507100934 61 64 0.0 1.0 0.00 0.00 0.00 89 1017.4
20260507100432 61 56 0.0 1.0 0.00 0.00 0.00 90 1017.6
20260507095930 61 43 1.0 1.0 0.00 0.00 0.00 90 1017.2
20260507095427 61 64 0.0 2.0 0.00 0.00 0.00 90 1017.2
20260507094924 61 60 1.0 3.0 0.00 0.00 0.00 91 1016.8
20260507094420 61 65 0.0 1.0 0.00 0.00 0.00 91 1016.5
20260507093917 61 62 0.0 1.0 0.00 0.00 0.00 91 1017.0
20260507093415 61 61 0.0 1.0 0.00 0.00 0.00 91 1016.9
20260507092913 61 55 0.0 0.0 0.00 0.00 0.00 91 1016.8
20260507092409 61 58 0.0 1.0 0.00 0.00 0.00 91 1016.6
20260507091906 61 63 0.0 1.0 0.00 0.00 0.00 91 1016.4
20260507091402 61 63 0.0 1.0 0.00 0.00 0.00 91 1016.2
20260507090858 61 52 1.0 4.0 0.00 0.00 0.00 91 1016.3
20260507090354 61 48 0.0 1.0 0.00 0.00 0.00 91 1015.8
20260507085852 61 61 1.0 2.0 0.00 0.00 0.00 91 1015.9
20260507085348 61 63 0.0 0.0 0.00 0.00 0.00 91 1015.9
20260507084846 61 64 0.0 3.0 0.00 0.00 0.00 91 1015.8
20260507084342 61 67 0.0 1.0 0.00 0.00 0.00 91 1015.6
20260507083839 61 63 0.0 0.0 0.00 0.00 0.00 90 1015.7
20260507083336 61 63 0.0 1.0 0.00 0.00 0.00 90 1015.5
20260507082832 61 42 2.0 3.0 0.00 0.00 0.00 90 1015.8
20260507082327 61 40 1.0 2.0 0.00 0.00 0.00 90 1016.4
20260507081825 61 62 0.0 3.0 0.00 0.00 0.00 90 1016.6
20260507081321 61 54 0.0 0.0 0.00 0.00 0.00 90 1017.3
20260507080818 61 61 0.0 1.0 0.00 0.00 0.00 90 1016.9
20260507080314 61 35 1.0 2.0 0.00 0.00 0.00 90 1016.6
20260507075809 61 51 1.0 2.0 0.00 0.00 0.00 90 1016.4
20260507075307 61 61 0.0 1.0 0.00 0.00 0.00 90 1016.0
20260507074802 61 54 1.0 2.0 0.00 0.00 0.00 89 1016.7
20260507074300 62 355 0.0 1.0 0.00 0.00 0.00 89 1015.5
20260507073757 61 64 0.0 1.0 0.00 0.00 0.00 89 1016.1
20260507073253 61 57 0.0 8.0 0.00 0.00 0.00 89 1015.7
20260507072751 61 51 0.0 1.0 0.00 0.00 0.00 89 1016.5
20260507072248 61 63 0.0 2.0 0.00 0.00 0.00 89 1016.4
20260507071746 62 32 0.0 2.0 0.00 0.00 0.00 89 1016.4
20260507071242 62 54 2.0 2.0 0.00 0.00 0.00 88 1016.3
20260507070739 62 74 1.0 1.0 0.00 0.00 0.00 88 1016.8
20260507070236 62 67 0.0 1.0 0.00 0.00 0.00 88 1016.7
20260507065732 62 84 1.0 1.0 0.00 0.00 0.00 88 1016.9
20260507065229 62 41 1.0 2.0 0.00 0.00 0.00 88 1016.3
20260507064727 62 62 1.0 3.0 0.00 0.00 0.00 87 1016.3
20260507064226 62 68 0.0 3.0 0.00 0.00 0.00 87 1017.0
20260507063722 62 66 0.0 0.0 0.00 0.00 0.00 87 1016.8
20260507063219 62 27 2.0 3.0 0.00 0.00 0.00 87 1016.7
20260507062716 62 72 0.0 4.0 0.00 0.00 0.00 87 1016.7
20260507062214 62 60 0.0 3.0 0.00 0.00 0.00 87 1017.0
20260507061711 62 60 1.0 1.0 0.00 0.00 0.00 87 1017.0
20260507061209 62 24 0.0 2.0 0.00 0.00 0.00 87 1017.4
20260507060707 62 61 0.0 1.0 0.00 0.00 0.00 87 1016.8
20260507060203 62 5 2.0 4.0 0.00 0.00 0.00 87 1017.1
20260507055659 62 55 0.0 2.0 0.00 0.00 0.00 87 1016.3
20260507055155 62 55 1.0 2.0 0.00 0.00 0.00 87 1016.2
20260507054651 62 62 0.0 3.0 0.00 0.00 0.00 87 1016.4
20260507054148 62 60 1.0 4.0 0.00 0.00 0.00 86 1016.7
20260507053646 62 85 1.0 3.0 0.00 0.00 0.00 86 1016.7
20260507053144 62 60 0.0 1.0 0.00 0.00 0.00 87 1016.8
20260507052642 62 60 1.0 2.0 0.00 0.00 0.00 87 1017.1
20260507052138 62 58 0.0 4.0 0.00 0.00 0.00 86 1016.9
20260507051636 62 49 1.0 3.0 0.00 0.00 0.00 86 1017.0
20260507051132 62 60 0.0 2.0 0.00 0.00 0.00 86 1016.6
20260507050629 62 69 1.0 2.0 0.00 0.00 0.00 86 1016.6
20260507050126 62 24 1.0 2.0 0.00 0.00 0.00 86 1016.8
20260507045623 62 52 1.0 2.0 0.00 0.00 0.00 86 1016.7
20260507045120 62 57 0.0 1.0 0.00 0.00 0.00 86 1016.7
20260507044616 62 44 0.0 2.0 0.00 0.00 0.00 86 1017.0
20260507044113 62 14 1.0 2.0 0.00 0.00 0.00 86 1016.6
20260507043609 62 60 0.0 1.0 0.00 0.00 0.00 86 1016.8
20260507043107 62 46 0.0 3.0 0.00 0.00 0.00 86 1016.8
20260507042602 62 53 1.0 3.0 0.00 0.00 0.00 86 1016.7
20260507042058 62 53 1.0 1.0 0.00 0.00 0.00 86 1016.9
20260507041555 62 12 1.0 3.0 0.00 0.00 0.00 85 1016.7
20260507041052 62 30 1.0 2.0 0.00 0.00 0.00 85 1016.3
20260507040548 62 78 1.0 2.0 0.00 0.00 0.00 85 1016.9
20260507040045 62 58 1.0 1.0 0.00 0.00 0.00 85 1016.7
20260507035541 62 46 1.0 1.0 0.00 0.00 0.00 85 1016.5
20260507035037 62 34 1.0 2.0 0.00 0.00 0.00 85 1016.6
20260507034534 62 43 0.0 1.0 0.00 0.00 0.00 85 1016.4
20260507034032 62 45 0.0 2.0 0.00 0.00 0.00 85 1016.6
20260507033530 62 63 0.0 3.0 0.00 0.00 0.00 84 1016.3
20260507033027 63 60 0.0 2.0 0.00 0.00 0.00 84 1016.4
20260507032524 63 33 0.0 2.0 0.00 0.00 0.00 84 1016.3
20260507032020 63 57 1.0 2.0 0.00 0.00 0.00 84 1016.3
20260507031516 63 45 1.0 2.0 0.00 0.00 0.00 84 1016.1
20260507031014 63 68 1.0 1.0 0.00 0.00 0.00 84 1016.4
20260507030510 63 69 0.0 1.0 0.00 0.00 0.00 84 1016.1
20260507030008 63 52 1.0 1.0 0.00 0.00 0.00 84 1016.1
20260507025505 63 50 0.0 2.0 0.00 0.00 0.00 84 1016.2
20260507025002 63 54 1.0 3.0 0.00 0.00 0.00 84 1016.1
20260507024500 63 44 1.0 2.0 0.00 0.00 0.00 84 1015.7
20260507023956 63 37 1.0 2.0 0.00 0.00 0.00 84 1015.4
20260507023452 63 53 1.0 2.0 0.00 0.00 0.00 84 1015.7
20260507022949 63 58 1.0 1.0 0.00 0.00 0.00 84 1015.5
20260507022447 63 22 0.0 2.0 0.00 0.00 0.00 84 1015.4
20260507021942 63 35 1.0 1.0 0.00 0.00 0.00 84 1015.5
20260507021437 63 62 1.0 1.0 0.00 0.00 0.00 84 1015.6
20260507020935 63 42 2.0 2.0 0.00 0.00 0.00 83 1015.2
20260507020432 63 60 1.0 2.0 0.00 0.00 0.00 84 1015.0
20260507015929 63 58 1.0 3.0 0.00 0.00 0.00 84 1014.9
20260507015427 64 37 1.0 1.0 0.00 0.00 0.00 84 1014.8
20260507014924 64 42 1.0 1.0 0.00 0.00 0.00 84 1014.9
20260507014420 64 63 0.0 1.0 0.00 0.00 0.00 83 1014.7
20260507013917 64 54 0.0 3.0 0.00 0.00 0.00 83 1014.7
20260507013414 64 53 0.0 1.0 0.00 0.00 0.00 83 1014.5
20260507012912 64 62 0.0 2.0 0.00 0.00 0.00 83 1014.5
20260507012408 64 39 0.0 2.0 0.00 0.00 0.00 83 1014.1
20260507011904 64 44 0.0 2.0 0.00 0.00 0.00 83 1014.3
20260507011401 64 76 1.0 2.0 0.00 0.00 0.00 83 1014.5
20260507010901 64 24 1.0 2.0 0.00 0.00 0.00 83 1013.8
20260507010357 64 64 0.0 1.0 0.00 0.00 0.00 83 1013.7
20260507005855 64 50 1.0 2.0 0.00 0.00 0.00 83 1013.8
20260507005351 64 56 1.0 1.0 0.00 0.00 0.00 82 1013.8
20260507004848 65 58 1.0 1.0 0.00 0.00 0.00 82 1013.9
20260507004345 65 50 0.0 1.0 0.00 0.00 0.00 82 1013.7
20260507003842 65 57 0.0 2.0 0.00 0.00 0.00 81 1013.8
20260507003337 66 41 0.0 1.0 0.00 0.00 0.00 81 1013.5
20260507002832 66 53 1.0 2.0 0.00 0.00 0.00 81 1013.8